Location: Newark
(44.9486°N, 4.8961°E)
Time: 04:33:34
(UTC+00:00)

ISS - Pass Details

Date: 30 July 2019
Orbit: 410 x 420 km, 51.6° (Epoch: 21 August)

Event Time Altitude Azimuth Distance (km) Brightness Sun altitude
Rises 22:14:36 0° 293° (WNW) 2,369 0.8 -23.3°
Reaches altitude 10° 22:16:53 10° 281° (W) 1,499 -0.5 -23.4°
Enters shadow 22:18:00 17° 268° (W) 1,135 -1.4 -23.5°
